Wind_Speed
1 5 5 3 3 3 7 6 6 3 4 1 2 4 7 9 8 13 11 10 8 8 9 16 18 18 16 15 16 19 21 19 20 18 15 13 10 9 8 12 14 14 15 13
5 6 7 8 7 9 5 6 2 2 2 3 6 7 8 12 12 12 8 10 8 5 6 13 19 20 21 19 19 19 19 18 20 20 19 17 16 13 11 12 15 17 20 17
7 5 7 7 7 6 3 5 5 2 4 3 1 7 6 7 9 12 7 10 9 10 11 10 18 21 23 22 23 21 19 19 20 19 16 13 11 12 14 18 19 21 20 19
4 4 7 8 6 6 4 7 7 4 1 3 2 5 4 6 13 15 9 16 15 15 8 9 15 20 25 25 24 22 19 18 18 17 15 15 14 14 18 22 23 21 20 21
7 5 11 9 3 6 2 8 6 7 2 2 2 2 6 4 6 13 15 16 17 17 15 13 17 20 25 25 27 24 21 18 16 15 13 14 12 14 18 20 18 19 19 22
5 4 6 3 7 6 12 6 7 5 3 2 5 5 5 6 12 6 11 13 16 16 15 12 16 17 22 23 25 25 23 19 17 16 12 12 9 9 12 14 16 18 18 20
2 2 3 7 8 5 4 5 3 4 3 5 5 1 10 4 6 9 16 13 15 18 16 13 12 18 22 25 25 25 24 23 18 18 16 12 11 12 14 17 17 16 18 17
6 2 8 5 6 8 5 6 5 4 2 4 2 6 6 6 8 7 11 8 9 14 13 15 17 21 21 25 27 24 25 27 22 22 20 20 19 19 19 20 20 23 21 14
5 5 1 4 4 4 5 3 5 6 2 2 4 6 9 9 6 4 8 11 12 12 12 13 16 21 23 24 28 27 26 28 27 25 24 23 22 21 20 18 19 15 9 4
7 4 1 3 5 6 3 9 3 3 2 5 5 5 7 4 8 4 9 9 9 9 9 8 13 19 23 25 27 25 25 27 28 26 25 23 20 20 17 12 12 7 4 2
6 4 2 5 6 10 2 1 5 5 4 4 2 6 7 9 7 11 9 11 13 13 12 10 11 19 24 23 25 25 23 23 22 20 22 20 17 17 15 11 4 2 4 6
7 6 4 10 4 6 1 6 6 5 5 2 2 6 4 7 9 10 9 10 10 12 13 11 14 19 22 22 22 22 21 21 19 18 17 17 16 16 10 6 4 4 6 8
4 2 2 6 6 2 5 5 4 6 3 6 4 5 3 4 5 5 10 8 8 10 10 8 9 14 19 24 23 21 19 18 16 16 16 15 15 12 10 7 6 5 6 8
6 3 8 10 8 5 6 6 6 7 4 5 6 3 4 3 6 6 6 8 11 12 14 11 8 12 20 25 25 23 20 17 16 17 18 18 15 13 12 10 8 6 8 9
4 3 3 5 6 7 7 9 13 9 8 7 7 10 8 7 9 10 11 9 8 10 11 13 11 9 20 21 22 21 20 21 21 21 20 18 16 15 13 11 9 9 11 13
4 3 2 4 6 10 4 10 17 16 2 7 4 6 6 7 5 7 10 12 12 14 15 13 10 12 18 22 24 25 25 25 24 23 20 19 19 18 16 14 12 14 15 16
3 2 3 4 5 5 5 14 13 10 6 7 7 11 5 4 8 9 11 14 15 16 14 15 15 17 21 27 30 30 29 27 25 24 23 24 23 22 19 17 16 18 17 18
2 2 2 3 2 5 8 7 18 20 14 14 3 6 11 7 8 8 14 19 15 13 14 12 14 18 21 27 28 27 27 28 27 25 26 26 25 23 21 20 20 20 19 18
13 4 1 3 3 5 5 5 10 8 13 13 14 8 8 5 4 3 9 15 20 18 17 19 23 27 28 30 30 29 29 29 30 30 30 29 27 26 25 24 23 21 20 19
6 3 2 3 4 6 7 4 13 6 12 6 10 8 9 7 4 5 12 12 13 16 16 23 26 26 29 30 32 32 31 32 32 33 31 29 28 27 27 26 24 21 19 18
4 3 11 3 4 7 8 6 6 10 9 12 6 6 11 7 7 5 9 14 13 16 23 31 29 30 32 34 35 30 31 30 33 33 32 30 28 28 27 26 24 22 20 18
6 7 5 3 5 8 2 3 7 6 10 6 6 4 8 12 8 7 12 10 13 16 22 26 24 25 31 35 36 29 25 31 35 34 32 31 29 28 27 26 23 21 20 18
3 4 3 8 6 4 5 3 4 7 8 8 15 8 10 12 10 9 11 15 16 18 25 28 28 26 26 34 34 31 31 36 36 33 33 33 32 30 29 28 25 22 20 20
3 3 3 2 4 2 4 4 6 11 11 16 15 18 9 12 11 14 14 13 14 19 22 26 28 26 26 30 32 33 38 38 37 34 34 35 35 33 30 27 24 23 22 21
3 5 2 6 8 8 6 5 13 20 19 18 19 14 13 7 10 14 14 16 16 21 25 28 29 28 28 30 32 36 40 39 36 34 33 32 34 35 33 28 25 23 23 24
4 6 4 4 2 3 6 12 20 19 16 20 20 24 17 10 9 10 14 17 19 23 25 24 23 25 28 30 33 37 40 42 40 33 31 30 35 36 34 30 25 24 24 24
Wind_Direction
67 75 226 236 131 193 143 181 186 158 120 38 212 215 148 159 171 203 166 170 178 195 168 172 186 195 195 196 193 191 197 200 203 203 208 209 208 209 205 214 227 234 258 265
54 218 218 117 111 119 120 146 208 310 104 136 223 239 162 175 206 205 174 167 193 152 159 166 170 190 198 198 199 194 201 203 206 210 211 219 225 230 233 225 239 245 246 260
164 220 145 126 137 135 192 196 204 76 137 188 284 272 192 210 187 211 184 173 168 192 186 173 173 182 195 199 198 197 199 199 204 205 206 206 212 225 239 240 247 240 246 257
224 245 159 145 180 150 209 195 122 125 120 213 270 268 293 206 194 197 179 183 180 186 193 182 178 180 192 200 198 199 196 195 199 204 206 205 203 197 221 236 239 241 241 256
235 154 150 161 204 162 112 86 110 101 100 336 326 61 266 141 205 210 198 188 185 185 188 185 193 186 197 195 199 198 197 193 196 203 213 218 225 213 219 232 250 250 254 269
209 101 128 162 44 106 129 83 49 60 85 323 219 149 268 192 211 197 214 195 181 178 184 185 202 181 186 199 203 202 197 194 205 209 218 219 220 213 226 244 261 263 271 285
5 102 51 104 81 14 81 81 9 1 0 230 326 209 246 251 238 199 196 204 179 178 179 170 171 182 176 192 202 202 195 197 205 210 221 224 225 228 238 256 267 272 278 282
153 227 164 183 172 178 154 144 148 206 224 277 3 240 247 236 241 215 203 192 156 167 170 176 179 184 178 190 201 200 194 203 201 210 214 217 218 235 251 269 273 274 275 293
122 263 162 146 129 115 182 151 165 106 40 359 234 283 292 243 267 180 148 154 164 164 174 172 170 179 182 188 203 204 201 205 208 217 220 230 235 246 256 269 279 287 277 264
203 140 332 124 105 49 156 149 95 17 206 270 276 273 246 280 211 190 156 164 159 158 158 168 173 175 184 195 203 208 212 212 218 224 229 234 235 243 249 261 259 274 273 272
139 117 166 121 208 169 136 173 63 117 141 203 286 268 214 230 191 179 187 167 163 165 166 174 177 177 185 192 202 209 213 215 221 222 228 233 237 247 250 252 248 164 126 113
202 142 166 207 201 173 197 164 154 135 196 211 145 277 288 224 191 176 177 175 167 164 168 172 169 168 170 185 195 202 204 212 220 223 226 229 229 229 225 199 163 136 117 111
181 192 74 348 350 75 207 162 130 101 75 184 154 276 319 36 173 211 165 175 155 146 140 146 150 167 171 183 196 202 208 207 210 207 209 209 211 196 188 182 168 148 120 109
136 126 167 209 212 159 182 183 180 128 133 174 214 243 247 251 209 204 177 173 160 162 160 163 164 174 178 185 194 197 197 202 199 198 197 201 196 182 177 169 157 135 123 126
82 144 238 259 246 179 190 181 182 190 193 181 200 202 242 203 204 209 187 151 150 156 162 173 179 174 177 180 183 190 190 189 189 186 189 186 179 178 173 164 154 139 134 128
351 165 195 262 254 192 227 212 188 210 147 276 164 251 219 207 182 155 168 159 170 179 184 175 179 168 171 173 178 184 183 185 184 182 179 178 177 174 170 163 154 144 138 129
22 37 47 260 327 132 260 211 192 212 194 157 180 222 160 181 193 187 167 175 186 186 184 180 178 180 174 176 182 179 183 182 179 176 173 174 175 170 165 159 155 152 145 137
291 33 115 248 4 206 242 215 195 207 216 200 189 186 178 194 226 184 183 176 189 192 187 181 175 170 169 173 178 176 175 174 174 173 172 174 172 168 163 161 158 154 151 147
204 143 254 180 230 278 266 198 177 170 250 208 222 217 189 192 104 252 195 192 187 184 197 180 174 164 167 170 176 172 166 168 171 173 175 175 174 169 167 165 162 158 154 151
147 88 157 139 180 222 243 300 208 86 257 240 197 197 157 154 158 234 190 193 203 199 177 154 158 157 157 166 174 165 161 167 171 176 177 176 176 173 171 170 168 166 164 160
129 155 211 200 226 282 252 274 113 160 239 242 211 168 157 187 212 205 188 188 181 169 159 152 159 159 169 171 171 162 164 170 175 176 176 175 177 174 173 171 171 170 169 169
169 154 182 147 196 248 320 39 133 282 316 343 339 170 197 221 175 187 181 168 148 145 145 150 150 156 167 172 170 160 168 172 175 176 175 175 175 174 173 172 170 175 176 172
247 197 202 186 204 218 21 320 6 342 326 329 327 319 208 213 192 187 182 167 171 169 161 160 157 152 164 173 175 160 170 174 173 175 173 174 174 177 176 175 173 174 176 173
223 37 224 334 253 252 312 3 354 354 327 314 308 313 234 213 202 181 174 166 161 161 160 158 150 158 166 173 174 173 173 175 173 169 169 173 174 177 178 180 179 176 174 175
246 336 255 272 287 320 138 24 346 335 331 340 333 313 284 238 194 181 169 175 166 162 161 162 166 166 170 169 170 179 175 176 168 165 167 168 176 180 180 184 185 187 186 185
197 211 196 239 149 212 275 328 321 321 322 329 325 320 313 251 207 178 184 176 166 163 159 164 171 159 163 166 169 176 181 179 170 162 166 171 176 181 182 183 186 194 194 191
Height
766 787 794 782 782 785 792 802 805 797 794 803 809 801 796 790 791 788 792 797 801 802 804 809 813 816 820 822 825 827 830 832 835 838 841 844 846 850 852 853 854 856 856 856
784 797 777 776 779 786 791 804 809 801 794 804 803 802 789 789 786 784 791 796 801 805 807 808 811 815 818 821 824 826 829 831 833 836 839 842 845 847 849 852 853 854 853 854
788 775 765 777 789 793 801 805 805 802 800 798 804 808 798 784 780 783 785 791 799 802 802 806 809 812 816 819 822 824 827 830 833 836 838 841 843 845 846 847 848 848 849 850
775 760 769 781 784 787 806 789 791 803 811 826 806 831 799 787 784 781 785 785 788 796 801 803 805 809 812 816 821 823 827 830 834 837 839 841 841 842 844 844 844 845 847 848
775 768 775 781 776 777 796 787 795 803 820 821 815 828 803 787 791 782 778 779 782 785 793 798 802 805 809 815 818 822 825 830 834 836 838 840 841 842 842 843 842 844 846 846
762 751 764 769 772 774 785 801 810 814 828 844 819 823 809 796 774 772 768 770 776 780 787 794 801 804 807 813 816 819 825 830 833 834 836 838 839 841 843 842 842 844 845 846
770 767 769 766 789 785 793 812 844 843 847 849 828 827 793 769 763 758 761 761 766 772 781 791 796 799 803 808 811 817 825 827 832 834 834 837 838 839 840 841 841 842 844 842
797 802 780 767 776 789 802 808 837 848 854 843 823 828 789 758 751 748 749 752 762 771 777 783 789 793 798 803 809 813 820 822 828 829 832 834 837 840 841 842 841 840 840 838
794 791 761 764 766 774 799 813 806 833 837 847 824 801 768 754 754 750 756 756 762 768 773 778 783 787 793 800 805 809 814 819 824 826 832 833 835 837 838 839 838 836 837 838
770 790 768 769 762 775 783 788 819 834 841 844 823 814 794 766 760 756 757 758 763 765 771 775 778 783 789 796 802 806 810 814 819 823 827 829 834 835 836 837 835 836 836 836
763 774 782 771 777 786 794 802 811 815 829 828 838 806 768 762 757 756 752 752 756 763 767 771 775 780 786 793 798 802 806 810 815 820 823 827 831 833 834 835 834 835 835 836
757 777 798 781 757 757 766 783 792 809 821 828 834 808 748 750 748 746 749 748 751 755 762 767 772 777 783 789 795 799 803 807 812 817 821 824 828 830 830 833 835 836 836 837
756 783 802 790 775 762 767 774 782 793 804 820 824 795 747 745 748 745 747 748 751 757 762 768 772 776 780 785 791 796 800 805 810 815 819 822 825 827 829 832 834 836 837 838
752 779 779 783 779 767 775 769 772 779 811 807 803 773 759 748 749 748 747 746 750 754 758 764 770 773 777 782 787 793 800 804 808 813 818 821 823 826 830 832 835 836 838 839
759 773 767 760 753 750 750 756 765 774 771 778 772 774 752 747 744 742 737 745 753 755 758 761 766 770 774 779 784 790 797 803 807 812 815 818 822 826 829 832 835 837 839 841
770 776 771 763 749 752 752 748 750 752 762 763 758 761 735 731 734 738 740 743 750 752 750 754 761 765 771 775 781 787 794 800 804 809 813 817 821 825 829 833 836 838 841 843
776 775 782 774 768 759 770 746 748 742 741 748 766 735 729 733 734 733 736 737 740 743 745 749 754 760 766 772 777 785 790 796 802 807 812 816 821 825 829 833 836 839 842 845
775 777 787 785 768 785 738 717 715 724 720 724 723 723 721 723 720 718 719 724 731 736 738 742 749 755 763 769 776 783 788 794 800 806 810 816 822 826 830 834 838 842 845 847
769 776 781 783 787 761 730 721 723 733 726 708 713 712 718 716 719 718 714 714 715 722 725 730 742 749 758 766 773 780 787 793 799 804 809 814 820 824 829 834 839 843 846 848
775 777 778 793 777 776 734 705 692 706 734 692 699 708 715 720 738 724 708 708 712 714 722 728 739 747 755 764 769 777 784 790 795 801 807 813 819 824 829 834 839 844 847 849
779 781 776 784 773 755 718 708 697 745 726 684 686 697 708 716 706 697 698 700 704 713 719 726 736 742 751 759 766 775 781 786 793 799 806 813 819 824 830 835 840 844 847 850
761 772 775 778 771 765 706 708 726 722 698 694 691 693 700 693 695 694 695 701 705 711 720 725 735 742 749 756 762 770 781 785 791 799 805 812 819 825 830 836 840 845 848 852
761 751 754 750 742 715 710 713 711 712 711 701 696 688 689 687 689 689 694 695 701 706 711 719 728 739 748 753 759 766 776 783 790 798 805 811 819 825 831 837 841 845 849 851
751 755 754 737 716 714 715 714 713 713 713 708 703 691 684 681 678 685 686 693 697 705 711 718 726 736 745 752 757 764 773 781 788 796 804 811 817 824 831 836 840 843 846 851
760 756 748 742 722 713 711 714 715 709 704 703 699 699 688 676 678 677 681 688 690 700 708 714 721 728 738 747 755 762 769 777 786 795 803 810 816 822 827 833 837 840 844 846
757 751 746 739 732 733 727 719 714 713 707 706 706 690 685 680 676 676 679 680 686 695 704 713 722 726 736 745 751 759 765 773 781 790 799 806 812 817 824 829 834 839 843 846